{"data":{"norad_id":40880,"epoch":"2026-05-25T04:08:07.507968Z","epoch_age_seconds":56777,"freshness":"FRESH","line1":"1 40880U 15041A   26145.17230912 -.00000162  00000+0  00000+0 0  9992","line2":"2 40880   1.8605  82.8678 0003423 339.1314 325.2800  1.00273566 39368","mean_motion":1.00273566,"eccentricity":0.0003423,"inclination_deg":1.8605,"raan_deg":82.8678,"arg_perigee_deg":339.1314,"mean_anomaly_deg":325.28,"bstar":0,"rev_number":3936,"period_min":1436.0713969223,"perigee_km":35771.662872779,"apogee_km":35800.528506478,"semimajor_km":42164.232689628,"source":"CELESTRAK","updated_at":"2026-05-25T13:38:13.991532Z"}}